Regional Weather Roundup
Issued by NWS

Home | Current Version | Previous Version | Graphics & Text | Print | Product List | Glossary On
Versions: 1 2 3 4 5 6 7 8 9 10 11 12 13 14 15 16 17 18 19 20 21 22 23 24 25 26 27 28 29 30 31 32 33 34 35 36 37 38 39 40 41 42 43 44 45 46 47 48 49 50
000
ASUS43 KTOP 010008
RWRKS

WEATHER ROUNDUP FOR KANSAS
NATIONAL WEATHER SERVICE GOODLAND KS
700 PM CDT FRI JUL 31 2015

NOTE:  "FAIR" INDICATES FEW OR NO CLOUDS BELOW 12,000 FEET WITH NO
SIGNIFICANT WEATHER AND/OR OBSTRUCTIONS TO VISIBILITY.

KSZ001>006-013>018-027>032-041>047-010100-
NORTHWEST KANSAS

CITY           SKY/WX    TMP DP  RH WIND       PRES   REMARKS
GOODLAND       MOSUNNY   87  57  35 SW7       30.14F
6HR MIN TEMP:  83; 6HR MAX TEMP:  90;

HAYS           SUNNY     91  57  31 S7        30.07F
HILL CITY      SUNNY     92  60  34 S10       30.07F
6HR MIN TEMP:  88; 6HR MAX TEMP:  94;

RUSSELL        SUNNY     91  61  36 S8        30.06S
6HR MIN TEMP:  87; 6HR MAX TEMP:  93;

$$

KSZ061>065-074>080-084>089-010100-
SOUTHWEST KANSAS

CITY           SKY/WX    TMP DP  RH WIND       PRES   REMARKS
DODGE CITY     SUNNY     86  62  44 E3        30.10F
6HR MIN TEMP:  82; 6HR MAX TEMP:  89;

ELKHART          N/A     82  62  50 SE9         N/A
GARDEN CITY    MOSUNNY   87  62  43 E8        30.11F
6HR MIN TEMP:  82; 6HR MAX TEMP:  88;

GREAT BEND     SUNNY     90  64  43 S6        30.06F
LIBERAL        MOSUNNY   84  63  48 SE13      30.12S
PRATT          SUNNY     88  61  40 SE6       30.10F
$$

KSZ066>073-081>083-090>101-010100-
SOUTHEAST KANSAS

CITY           SKY/WX    TMP DP  RH WIND       PRES   REMARKS
CHANUTE        SUNNY     89  71  55 S6        30.06S HX  95
6HR MIN TEMP:  87; 6HR MAX TEMP:  92;

COFFEYVILLE    SUNNY     86  72  62 S7        30.05F
6HR MIN TEMP:  86; 6HR MAX TEMP:  91;

HUTCHINSON     SUNNY     88  67  49 SE7       30.07F
6HR MIN TEMP:  85; 6HR MAX TEMP:  91;

MEDICINE LODGE   N/A     88  70  55 SE6       30.05F
NEWTON         SUNNY     88  64  45 SE6       30.10F
PARSONS        SUNNY     87  74  64 S5        30.06F HX  95
6HR MIN TEMP:  85; 6HR MAX TEMP:  91;

WICHITA INTL   MOSUNNY   89  69  51 S8        30.06F
6HR MIN TEMP:  88; 6HR MAX TEMP:  93;

WICHITA JABRA  SUNNY     89  68  49 SE6       30.07F
6HR MIN TEMP:  87; 6HR MAX TEMP:  91;

WICHITA MCCONL SUNNY     89  67  47 E7        30.06F
WINFIELD       MOSUNNY   84  74  71 S8        30.07S
6HR MIN TEMP:  84; 6HR MAX TEMP:  92;

$$

KSZ007>012-019>026-033>040-048>060-102>105-010100-
NORTHEAST KANSAS

CITY           SKY/WX    TMP DP  RH WIND       PRES   REMARKS
CONCORDIA      SUNNY     90  66  45 SE8       30.05S
6HR MIN TEMP:  87; 6HR MAX TEMP:  92;

EMPORIA        SUNNY     89  67  47 SE5       30.06F
6HR MIN TEMP:  86; 6HR MAX TEMP:  91;

LAWRENCE       SUNNY     89  67  47 CALM      30.05S
6HR MIN TEMP:  86; 6HR MAX TEMP:  91;

MANHATTAN      SUNNY     90  70  51 SE6       30.04F HX  95
6HR MIN TEMP:  87; 6HR MAX TEMP:  93;

MARYSVILLE     SUNNY     90  68  48 SW6       30.04F
OLATHE IND     SUNNY     87  66  49 NW7       30.07S
6HR MIN TEMP:  87; 6HR MAX TEMP:  89;

OLATHE EXE     SUNNY     87  64  46 W6        30.06S
6HR MIN TEMP:  85; 6HR MAX TEMP:  89;

SALINA         SUNNY     91  68  46 S8        30.05F HX  95
6HR MIN TEMP:  87; 6HR MAX TEMP:  93;

TOPEKA BILLARD SUNNY     90  67  46 E3        30.05S
6HR MIN TEMP:  86; 6HR MAX TEMP:  91;

TOPEKA FORBES  SUNNY     90  66  45 E5        30.06S
6HR MIN TEMP:  87; 6HR MAX TEMP:  92;

$$


USA.gov is the U.S. government's official web portal to all federal, state and local government web resources and services.